Wetterdaten: Sonntag, 22.02.2015
Datum Zeit Auen-Temp. Temp. -10 cm Luftfeuchte Luftfeuchte Luftdruck Regen Wind Richtung Richtung Taupunkt Windchill Windben
22.02.2015 00:00 -0,2 C 0,9 C 76 % 76 % 1005,9 hPa 0,0 l/m 0,0 km/h (0 Bft) NO 45 -3,9 C -0,9 C 0,0 km/h (0 Bft)
22.02.2015 00:05 -0,1 C 0,9 C 76 % 76 % 1005,9 hPa 0,0 l/m 0,0 km/h (0 Bft) NO 45 -3,8 C -0,9 C 0,0 km/h (0 Bft)
22.02.2015 00:10 -0,1 C 0,9 C 77 % 77 % 1005,9 hPa 0,0 l/m 0,0 km/h (0 Bft) O-SO 112 -3,6 C -0,9 C 0,0 km/h (0 Bft)
22.02.2015 00:15 -0,1 C 0,9 C 77 % 77 % 1006,3 hPa 0,0 l/m 0,0 km/h (0 Bft) O-SO 112 -3,6 C -0,8 C 0,0 km/h (0 Bft)
22.02.2015 00:20 -0,1 C 0,9 C 77 % 77 % 1006,3 hPa 0,0 l/m 0,0 km/h (0 Bft) O-SO 112 -3,6 C -0,8 C 0,0 km/h (0 Bft)
22.02.2015 00:25 -0,1 C 0,9 C 77 % 77 % 1006,3 hPa 0,0 l/m 0,0 km/h (0 Bft) O-SO 112 -3,6 C -0,8 C 0,0 km/h (0 Bft)
22.02.2015 00:30 -0,1 C 1,1 C 78 % 78 % 1006,3 hPa 0,0 l/m 0,0 km/h (0 Bft) N-NO 22 -3,5 C -0,7 C 0,0 km/h (0 Bft)
22.02.2015 00:35 -0,1 C 1,1 C 78 % 78 % 1006,4 hPa 0,0 l/m 0,0 km/h (0 Bft) N-NO 22 -3,5 C -0,7 C 0,0 km/h (0 Bft)
22.02.2015 00:40 -0,1 C 1,1 C 78 % 78 % 1006,4 hPa 0,0 l/m 0,0 km/h (0 Bft) O-NO 67 -3,5 C -0,7 C 0,0 km/h (0 Bft)
22.02.2015 00:45 -0,1 C 1,1 C 78 % 78 % 1006,4 hPa 0,0 l/m 0,0 km/h (0 Bft) O-SO 112 -3,5 C -0,7 C 0,0 km/h (0 Bft)
22.02.2015 00:50 0,0 C 1,1 C 78 % 78 % 1006,4 hPa 0,0 l/m 0,0 km/h (0 Bft) O-SO 112 -3,4 C -0,7 C 0,0 km/h (0 Bft)
22.02.2015 00:55 0,0 C 1,1 C 79 % 79 % 1006,4 hPa 0,0 l/m 0,0 km/h (0 Bft) O-SO 112 -3,2 C -0,6 C 0,0 km/h (0 Bft)
22.02.2015 01:00 0,0 C 1,1 C 79 % 79 % 1006,4 hPa 0,0 l/m 0,0 km/h (0 Bft) O-SO 112 -3,2 C -0,6 C 0,0 km/h (0 Bft)
22.02.2015 01:05 0,0 C 1,1 C 79 % 79 % 1006,4 hPa 0,0 l/m 0,0 km/h (0 Bft) N-NO 22 -3,2 C -0,6 C 0,0 km/h (0 Bft)
22.02.2015 01:10 0,0 C 1,1 C 79 % 79 % 1006,4 hPa 0,0 l/m 0,0 km/h (0 Bft) NO 45 -3,2 C -0,5 C 0,0 km/h (0 Bft)
22.02.2015 01:15 0,0 C 1,1 C 79 % 79 % 1006,5 hPa 0,0 l/m 0,0 km/h (0 Bft) NO 45 -3,2 C -0,5 C 0,0 km/h (0 Bft)
22.02.2015 01:20 0,0 C 1,1 C 79 % 79 % 1006,5 hPa 0,0 l/m 0,0 km/h (0 Bft) O-SO 112 -3,2 C -0,5 C 0,0 km/h (0 Bft)
22.02.2015 01:25 0,0 C 1,1 C 80 % 80 % 1006,5 hPa 0,0 l/m 0,0 km/h (0 Bft) O-SO 112 -3,0 C -0,5 C 0,0 km/h (0 Bft)
22.02.2015 01:30 0,0 C 1,1 C 80 % 80 % 1006,5 hPa 0,0 l/m 0,0 km/h (0 Bft) O-SO 112 -3,0 C -0,5 C 0,0 km/h (0 Bft)
22.02.2015 01:35 0,0 C 1,1 C 80 % 80 % 1006,6 hPa 0,0 l/m 0,0 km/h (0 Bft) O-SO 112 -3,0 C -0,5 C 0,0 km/h (0 Bft)
22.02.2015 01:40 0,0 C 1,1 C 80 % 80 % 1006,6 hPa 0,0 l/m 0,0 km/h (0 Bft) O-SO 112 -3,0 C -0,5 C 0,0 km/h (0 Bft)
22.02.2015 01:45 0,0 C 1,1 C 80 % 80 % 1006,6 hPa 0,0 l/m 0,0 km/h (0 Bft) O-SO 112 -3,0 C -0,5 C 0,0 km/h (0 Bft)
22.02.2015 01:50 0,0 C 1,1 C 81 % 81 % 1006,6 hPa 0,0 l/m 0,0 km/h (0 Bft) O-SO 112 -2,9 C -0,5 C 0,0 km/h (0 Bft)
22.02.2015 01:55 0,0 C 1,1 C 81 % 81 % 1006,8 hPa 0,0 l/m 0,0 km/h (0 Bft) O-SO 112 -2,9 C -0,5 C 0,0 km/h (0 Bft)
22.02.2015 02:00 0,1 C 1,1 C 81 % 81 % 1006,8 hPa 0,0 l/m 0,0 km/h (0 Bft) O-SO 112 -2,8 C -0,5 C 0,0 km/h (0 Bft)
22.02.2015 02:05 0,1 C 1,1 C 81 % 81 % 1006,8 hPa 0,0 l/m 0,0 km/h (0 Bft) NO 45 -2,8 C -0,5 C 0,0 km/h (0 Bft)
22.02.2015 02:10 0,1 C 1,1 C 81 % 81 % 1006,8 hPa 0,0 l/m 0,0 km/h (0 Bft) SO 135 -2,8 C -0,5 C 0,0 km/h (0 Bft)
22.02.2015 02:15 0,1 C 1,1 C 81 % 81 % 1006,8 hPa 0,0 l/m 0,0 km/h (0 Bft) SO 135 -2,8 C -0,5 C 0,0 km/h (0 Bft)
22.02.2015 02:20 0,1 C 1,1 C 82 % 82 % 1006,8 hPa 0,0 l/m 0,2 km/h (0 Bft) N-NO 22 -2,6 C -0,5 C 0,0 km/h (0 Bft)
22.02.2015 02:25 0,1 C 1,1 C 82 % 82 % 1006,8 hPa 0,0 l/m 0,2 km/h (0 Bft) N-NO 22 -2,6 C -0,5 C 0,0 km/h (0 Bft)
22.02.2015 02:30 0,1 C 1,1 C 82 % 82 % 1006,8 hPa 0,0 l/m 0,2 km/h (0 Bft) N-NO 22 -2,6 C -0,5 C 0,0 km/h (0 Bft)
22.02.2015 02:35 0,1 C 1,1 C 82 % 82 % 1006,8 hPa 0,0 l/m 0,2 km/h (0 Bft) NW 315 -2,6 C -0,5 C 0,0 km/h (0 Bft)
22.02.2015 02:40 0,1 C 1,1 C 83 % 83 % 1006,8 hPa 0,0 l/m 0,0 km/h (0 Bft) W 270 -2,4 C -0,5 C 0,0 km/h (0 Bft)
22.02.2015 02:45 0,1 C 1,1 C 83 % 83 % 1006,8 hPa 0,0 l/m 0,0 km/h (0 Bft) W 270 -2,4 C -0,5 C 0,0 km/h (0 Bft)
22.02.2015 02:50 0,0 C 1,1 C 83 % 83 % 1006,8 hPa 0,0 l/m 0,6 km/h (0 Bft) NW 315 -2,5 C -0,5 C 3,9 km/h (1 Bft)
22.02.2015 02:55 0,0 C 1,1 C 83 % 83 % 1006,8 hPa 0,0 l/m 1,3 km/h (1 Bft) W 270 -2,5 C -0,5 C 6,1 km/h (2 Bft)
22.02.2015 03:00 0,0 C 1,1 C 84 % 84 % 1006,8 hPa 0,0 l/m 1,1 km/h (1 Bft) W-SW 247 -2,4 C -0,5 C 0,0 km/h (0 Bft)
22.02.2015 03:05 0,0 C 1,1 C 84 % 84 % 1006,8 hPa 0,0 l/m 1,0 km/h (0 Bft) W-NW 292 -2,4 C -0,5 C 0,0 km/h (0 Bft)
22.02.2015 03:10 -0,1 C 1,2 C 84 % 84 % 1006,8 hPa 0,0 l/m 0,8 km/h (0 Bft) NW 315 -2,5 C -0,5 C 7,4 km/h (2 Bft)
22.02.2015 03:15 -0,1 C 1,2 C 84 % 84 % 1007,1 hPa 0,0 l/m 2,1 km/h (1 Bft) W 270 -2,5 C -0,5 C 4,0 km/h (1 Bft)
22.02.2015 03:20 -0,2 C 1,2 C 85 % 85 % 1007,1 hPa 0,0 l/m 3,2 km/h (1 Bft) W 270 -2,4 C -1,4 C 3,5 km/h (1 Bft)
22.02.2015 03:25 -0,2 C 1,2 C 85 % 85 % 1007,1 hPa 0,0 l/m 2,3 km/h (1 Bft) W 270 -2,4 C -0,8 C 2,3 km/h (1 Bft)
22.02.2015 03:30 -0,3 C 1,2 C 85 % 85 % 1007,1 hPa 0,0 l/m 1,4 km/h (1 Bft) W-SW 247 -2,5 C -0,9 C 2,7 km/h (1 Bft)
22.02.2015 03:35 -0,4 C 1,2 C 85 % 85 % 1007,1 hPa 0,0 l/m 1,9 km/h (1 Bft) W-NW 292 -2,6 C -0,9 C 1,9 km/h (1 Bft)
22.02.2015 03:40 -0,5 C 1,2 C 85 % 85 % 1007,1 hPa 0,0 l/m 2,6 km/h (1 Bft) W-SW 247 -2,7 C -1,3 C 1,6 km/h (1 Bft)
22.02.2015 03:45 -0,5 C 1,2 C 85 % 85 % 1007,1 hPa 0,0 l/m 2,1 km/h (1 Bft) S-SO 157 -2,7 C -1,2 C 3,2 km/h (1 Bft)
22.02.2015 03:50 -0,6 C 1,2 C 85 % 85 % 1007,1 hPa 0,0 l/m 1,3 km/h (1 Bft) W-SW 247 -2,8 C -1,2 C 0,0 km/h (0 Bft)
22.02.2015 03:55 -0,6 C 1,2 C 85 % 85 % 1007,3 hPa 0,0 l/m 1,1 km/h (1 Bft) W 270 -2,8 C -1,3 C 2,4 km/h (1 Bft)
22.02.2015 04:00 -0,7 C 1,2 C 85 % 85 % 1007,3 hPa 0,0 l/m 0,8 km/h (0 Bft) W-SW 247 -2,9 C -1,3 C 1,8 km/h (1 Bft)
22.02.2015 04:05 -0,7 C 1,2 C 85 % 85 % 1007,3 hPa 0,0 l/m 0,8 km/h (0 Bft) W 270 -2,9 C -1,3 C 0,0 km/h (0 Bft)
22.02.2015 04:10 -0,7 C 1,2 C 85 % 85 % 1007,3 hPa 0,0 l/m 0,5 km/h (0 Bft) W-SW 247 -2,9 C -1,4 C 0,0 km/h (0 Bft)
22.02.2015 04:15 -0,7 C 1,2 C 86 % 86 % 1007,6 hPa 0,0 l/m 0,3 km/h (0 Bft) W-NW 292 -2,7 C -1,4 C 3,2 km/h (1 Bft)
22.02.2015 04:20 -0,8 C 1,2 C 86 % 86 % 1007,6 hPa 0,0 l/m 1,8 km/h (1 Bft) W-SW 247 -2,8 C -1,4 C 3,4 km/h (1 Bft)
22.02.2015 04:25 -0,8 C 1,2 C 86 % 86 % 1007,6 hPa 0,0 l/m 2,4 km/h (1 Bft) W-SW 247 -2,8 C -1,5 C 2,9 km/h (1 Bft)
22.02.2015 04:30 -0,8 C 1,2 C 86 % 86 % 1007,6 hPa 0,0 l/m 1,8 km/h (1 Bft) W-SW 247 -2,8 C -1,5 C 2,4 km/h (1 Bft)
22.02.2015 04:35 -0,8 C 1,2 C 86 % 86 % 1007,8 hPa 0,0 l/m 1,8 km/h (1 Bft) W 270 -2,8 C -1,5 C 4,8 km/h (1 Bft)
22.02.2015 04:40 -0,9 C 1,2 C 86 % 86 % 1007,8 hPa 0,0 l/m 2,6 km/h (1 Bft) W-SW 247 -2,9 C -1,8 C 4,8 km/h (1 Bft)
22.02.2015 04:45 -0,9 C 1,2 C 86 % 86 % 1007,8 hPa 0,0 l/m 2,7 km/h (1 Bft) W-SW 247 -2,9 C -2,0 C 0,0 km/h (0 Bft)
22.02.2015 04:50 -0,9 C 1,2 C 86 % 86 % 1007,8 hPa 0,0 l/m 2,4 km/h (1 Bft) W 270 -2,9 C -1,7 C 0,0 km/h (0 Bft)
22.02.2015 04:55 -1,0 C 1,2 C 86 % 86 % 1008,1 hPa 0,0 l/m 1,3 km/h (1 Bft) W 270 -3,0 C -1,6 C 0,0 km/h (0 Bft)
22.02.2015 05:00 -1,0 C 1,2 C 86 % 86 % 1008,1 hPa 0,0 l/m 0,3 km/h (0 Bft) W-SW 247 -3,0 C -1,7 C 0,0 km/h (0 Bft)
22.02.2015 05:05 -1,0 C 1,2 C 86 % 86 % 1008,1 hPa 0,0 l/m 0,2 km/h (0 Bft) SW 225 -3,0 C -1,7 C 0,0 km/h (0 Bft)
22.02.2015 05:10 -1,1 C 1,2 C 86 % 86 % 1008,1 hPa 0,0 l/m 0,8 km/h (0 Bft) W 270 -3,1 C -1,8 C 3,2 km/h (1 Bft)
22.02.2015 05:15 -1,1 C 1,2 C 86 % 86 % 1008,2 hPa 0,0 l/m 1,1 km/h (1 Bft) W-SW 247 -3,1 C -1,8 C 0,0 km/h (0 Bft)
22.02.2015 05:20 -1,1 C 1,2 C 86 % 86 % 1008,2 hPa 0,0 l/m 0,6 km/h (0 Bft) W-SW 247 -3,1 C -1,8 C 0,0 km/h (0 Bft)
22.02.2015 05:25 -1,1 C 1,2 C 86 % 86 % 1008,2 hPa 0,0 l/m 0,2 km/h (0 Bft) W 270 -3,1 C -1,8 C 1,8 km/h (1 Bft)
22.02.2015 05:30 -1,1 C 1,2 C 86 % 86 % 1008,2 hPa 0,0 l/m 0,0 km/h (0 Bft) SW 225 -3,1 C -1,8 C 0,0 km/h (0 Bft)
22.02.2015 05:35 -1,2 C 1,2 C 86 % 86 % 1008,4 hPa 0,0 l/m 0,0 km/h (0 Bft) SW 225 -3,2 C -1,8 C 0,0 km/h (0 Bft)
22.02.2015 05:40 -1,1 C 1,2 C 86 % 86 % 1008,4 hPa 0,0 l/m 0,0 km/h (0 Bft) SW 225 -3,1 C -1,8 C 0,0 km/h (0 Bft)
22.02.2015 05:45 -1,1 C 1,2 C 86 % 86 % 1008,4 hPa 0,0 l/m 0,0 km/h (0 Bft) SW 225 -3,1 C -1,8 C 0,0 km/h (0 Bft)
22.02.2015 05:50 -1,1 C 1,2 C 85 % 85 % 1008,4 hPa 0,0 l/m 0,0 km/h (0 Bft) SW 225 -3,3 C -1,8 C 1,9 km/h (1 Bft)
22.02.2015 05:55 -1,1 C 1,2 C 85 % 85 % 1008,6 hPa 0,0 l/m 0,0 km/h (0 Bft) SW 225 -3,3 C -1,8 C 0,0 km/h (0 Bft)
22.02.2015 06:00 -1,1 C 1,2 C 85 % 85 % 1008,6 hPa 0,0 l/m 0,8 km/h (0 Bft) SW 225 -3,3 C -1,8 C 0,0 km/h (0 Bft)
22.02.2015 06:05 -1,1 C 1,2 C 85 % 85 % 1008,6 hPa 0,0 l/m 0,8 km/h (0 Bft) SW 225 -3,3 C -1,8 C 0,0 km/h (0 Bft)
22.02.2015 06:10 -1,2 C 1,2 C 85 % 85 % 1008,6 hPa 0,0 l/m 0,0 km/h (0 Bft) SW 225 -3,4 C -1,8 C 0,0 km/h (0 Bft)
22.02.2015 06:15 -1,2 C 1,2 C 85 % 85 % 1008,8 hPa 0,0 l/m 0,0 km/h (0 Bft) SW 225 -3,4 C -1,8 C 0,0 km/h (0 Bft)
22.02.2015 06:20 -1,2 C 1,2 C 85 % 85 % 1008,8 hPa 0,0 l/m 0,0 km/h (0 Bft) SW 225 -3,4 C -1,8 C 0,0 km/h (0 Bft)
22.02.2015 06:25 -1,2 C 1,2 C 85 % 85 % 1008,8 hPa 0,0 l/m 0,0 km/h (0 Bft) SW 225 -3,4 C -1,8 C 0,0 km/h (0 Bft)
22.02.2015 06:30 -1,2 C 1,2 C 85 % 85 % 1008,8 hPa 0,0 l/m 0,0 km/h (0 Bft) SW 225 -3,4 C -1,8 C 0,0 km/h (0 Bft)
22.02.2015 06:35 -1,2 C 1,2 C 85 % 85 % 1008,9 hPa 0,0 l/m 0,0 km/h (0 Bft) SW 225 -3,4 C -1,8 C 0,0 km/h (0 Bft)
22.02.2015 06:40 -1,2 C 1,2 C 85 % 85 % 1008,9 hPa 0,0 l/m 0,0 km/h (0 Bft) SW 225 -3,4 C -1,8 C 0,0 km/h (0 Bft)
22.02.2015 06:45 -1,2 C 1,2 C 85 % 85 % 1008,9 hPa 0,0 l/m 0,0 km/h (0 Bft) SW 225 -3,4 C -1,8 C 0,0 km/h (0 Bft)
22.02.2015 06:50 -1,2 C 1,2 C 85 % 85 % 1008,9 hPa 0,0 l/m 0,0 km/h (0 Bft) SW 225 -3,4 C -1,8 C 0,0 km/h (0 Bft)
22.02.2015 06:55 -1,2 C 1,2 C 85 % 85 % 1009,1 hPa 0,0 l/m 0,0 km/h (0 Bft) SW 225 -3,4 C -1,8 C 0,0 km/h (0 Bft)
22.02.2015 07:00 -1,2 C 1,2 C 85 % 85 % 1009,1 hPa 0,0 l/m 0,0 km/h (0 Bft) SW 225 -3,4 C -1,8 C 0,0 km/h (0 Bft)
22.02.2015 07:05 -1,2 C 1,2 C 85 % 85 % 1009,1 hPa 0,0 l/m 0,0 km/h (0 Bft) SW 225 -3,4 C -1,8 C 0,0 km/h (0 Bft)
22.02.2015 07:10 -1,2 C 1,2 C 85 % 85 % 1009,1 hPa 0,0 l/m 0,0 km/h (0 Bft) SW 225 -3,4 C -1,8 C 0,0 km/h (0 Bft)
22.02.2015 07:15 -1,2 C 1,2 C 85 % 85 % 1009,5 hPa 0,0 l/m 0,0 km/h (0 Bft) SW 225 -3,4 C -1,8 C 0,0 km/h (0 Bft)
22.02.2015 07:20 -1,2 C 1,2 C 85 % 85 % 1009,5 hPa 0,0 l/m 0,0 km/h (0 Bft) SW 225 -3,4 C -1,8 C 0,0 km/h (0 Bft)
22.02.2015 07:25 -1,2 C 1,2 C 85 % 85 % 1009,5 hPa 0,0 l/m 0,0 km/h (0 Bft) SW 225 -3,4 C -1,8 C 0,0 km/h (0 Bft)
22.02.2015 07:30 -1,2 C 1,2 C 85 % 85 % 1009,5 hPa 0,0 l/m 0,0 km/h (0 Bft) SW 225 -3,4 C -1,8 C 0,0 km/h (0 Bft)
22.02.2015 07:35 -1,1 C 1,2 C 85 % 85 % 1009,8 hPa 0,0 l/m 0,0 km/h (0 Bft) SW 225 -3,3 C -1,8 C 0,0 km/h (0 Bft)
22.02.2015 07:40 -1,1 C 1,2 C 85 % 85 % 1009,8 hPa 0,0 l/m 0,0 km/h (0 Bft) SW 225 -3,3 C -1,8 C 0,0 km/h (0 Bft)
22.02.2015 07:45 -1,0 C 1,2 C 85 % 85 % 1009,8 hPa 0,0 l/m 0,0 km/h (0 Bft) SW 225 -3,2 C -1,8 C 0,0 km/h (0 Bft)
22.02.2015 07:50 -0,9 C 1,2 C 85 % 85 % 1009,8 hPa 0,0 l/m 0,0 km/h (0 Bft) SW 225 -3,1 C -1,6 C 0,0 km/h (0 Bft)
22.02.2015 07:55 -0,8 C 1,2 C 85 % 85 % 1010,1 hPa 0,0 l/m 0,0 km/h (0 Bft) SW 225 -3,0 C -1,6 C 0,0 km/h (0 Bft)
22.02.2015 08:00 -0,7 C 1,2 C 85 % 85 % 1010,1 hPa 0,0 l/m 0,0 km/h (0 Bft) SW 225 -2,9 C -1,4 C 0,0 km/h (0 Bft)
22.02.2015 08:05 -0,5 C 1,2 C 85 % 85 % 1010,1 hPa 0,0 l/m 0,0 km/h (0 Bft) SW 225 -2,7 C -1,2 C 0,0 km/h (0 Bft)
22.02.2015 08:10 -0,4 C 1,2 C 85 % 85 % 1010,1 hPa 0,0 l/m 0,0 km/h (0 Bft) SW 225 -2,6 C -1,0 C 0,0 km/h (0 Bft)
22.02.2015 08:15 -0,2 C 1,2 C 85 % 85 % 1010,1 hPa 0,0 l/m 0,0 km/h (0 Bft) SW 225 -2,4 C -0,9 C 0,0 km/h (0 Bft)
22.02.2015 08:20 -0,1 C 1,2 C 85 % 85 % 1010,1 hPa 0,0 l/m 0,0 km/h (0 Bft) SW 225 -2,3 C -0,8 C 0,0 km/h (0 Bft)
22.02.2015 08:25 -0,2 C 1,2 C 85 % 85 % 1010,1 hPa 0,0 l/m 0,0 km/h (0 Bft) SW 225 -2,4 C -0,7 C 0,0 km/h (0 Bft)
22.02.2015 08:30 -0,2 C 1,2 C 85 % 85 % 1010,1 hPa 0,0 l/m 0,0 km/h (0 Bft) SW 225 -2,4 C -0,8 C 0,0 km/h (0 Bft)
22.02.2015 08:35 -0,2 C 1,2 C 84 % 84 % 1010,5 hPa 0,0 l/m 0,0 km/h (0 Bft) SW 225 -2,6 C -0,8 C 0,0 km/h (0 Bft)
22.02.2015 08:40 -0,2 C 1,2 C 84 % 84 % 1010,5 hPa 0,0 l/m 0,0 km/h (0 Bft) SW 225 -2,6 C -0,8 C 0,0 km/h (0 Bft)
22.02.2015 08:45 -0,1 C 1,2 C 84 % 84 % 1010,5 hPa 0,0 l/m 0,0 km/h (0 Bft) SW 225 -2,5 C -0,8 C 0,0 km/h (0 Bft)
22.02.2015 08:50 -0,1 C 1,2 C 84 % 84 % 1010,5 hPa 0,0 l/m 0,0 km/h (0 Bft) SW 225 -2,5 C -0,8 C 0,0 km/h (0 Bft)
22.02.2015 08:55 0,1 C 1,2 C 84 % 84 % 1010,8 hPa 0,0 l/m 0,0 km/h (0 Bft) SW 225 -2,3 C -0,7 C 0,0 km/h (0 Bft)
22.02.2015 09:00 0,3 C 1,2 C 84 % 84 % 1010,8 hPa 0,0 l/m 0,0 km/h (0 Bft) SW 225 -2,1 C -0,6 C 0,0 km/h (0 Bft)
22.02.2015 09:05 0,4 C 1,2 C 84 % 84 % 1010,8 hPa 0,0 l/m 0,0 km/h (0 Bft) SW 225 -2,0 C -0,5 C 0,0 km/h (0 Bft)
22.02.2015 09:10 0,5 C 1,2 C 83 % 83 % 1010,8 hPa 0,0 l/m 0,0 km/h (0 Bft) SW 225 -2,0 C -0,4 C 0,0 km/h (0 Bft)
22.02.2015 09:15 0,6 C 1,1 C 83 % 83 % 1011,1 hPa 0,0 l/m 0,0 km/h (0 Bft) SW 225 -1,9 C -0,3 C 0,0 km/h (0 Bft)
22.02.2015 09:20 0,8 C 1,1 C 82 % 82 % 1011,1 hPa 0,0 l/m 0,0 km/h (0 Bft) SW 225 -1,9 C -0,2 C 0,0 km/h (0 Bft)
22.02.2015 09:25 0,9 C 1,1 C 82 % 82 % 1011,1 hPa 0,0 l/m 0,0 km/h (0 Bft) SW 225 -1,8 C 0,0 C 0,0 km/h (0 Bft)
22.02.2015 09:30 0,9 C 1,1 C 81 % 81 % 1011,1 hPa 0,0 l/m 0,0 km/h (0 Bft) SW 225 -2,0 C 0,1 C 0,0 km/h (0 Bft)
22.02.2015 09:35 1,2 C 1,1 C 81 % 81 % 1011,1 hPa 0,0 l/m 0,0 km/h (0 Bft) SW 225 -1,7 C 0,3 C 0,0 km/h (0 Bft)
22.02.2015 09:40 1,5 C 1,1 C 81 % 81 % 1011,1 hPa 0,0 l/m 0,0 km/h (0 Bft) SW 225 -1,4 C 0,5 C 0,0 km/h (0 Bft)
22.02.2015 09:45 1,5 C 1,1 C 80 % 80 % 1011,1 hPa 0,0 l/m 0,0 km/h (0 Bft) SW 225 -1,6 C 0,6 C 0,0 km/h (0 Bft)
22.02.2015 09:50 1,4 C 1,1 C 79 % 79 % 1011,1 hPa 0,0 l/m 0,0 km/h (0 Bft) SW 225 -1,8 C 0,7 C 0,0 km/h (0 Bft)
22.02.2015 09:55 1,5 C 1,1 C 79 % 79 % 1011,4 hPa 0,0 l/m 0,0 km/h (0 Bft) SW 225 -1,7 C 0,7 C 0,0 km/h (0 Bft)
22.02.2015 10:00 1,3 C 1,1 C 78 % 78 % 1011,4 hPa 0,0 l/m 0,0 km/h (0 Bft) SW 225 -2,1 C 0,9 C 0,0 km/h (0 Bft)
22.02.2015 10:05 1,5 C 1,1 C 78 % 78 % 1011,4 hPa 0,0 l/m 0,0 km/h (0 Bft) SW 225 -1,9 C 1,0 C 0,0 km/h (0 Bft)
22.02.2015 10:10 1,5 C 1,1 C 78 % 78 % 1011,4 hPa 0,0 l/m 0,0 km/h (0 Bft) SW 225 -1,9 C 1,2 C 0,0 km/h (0 Bft)
22.02.2015 10:15 1,4 C 1,1 C 78 % 78 % 1011,8 hPa 0,0 l/m 0,0 km/h (0 Bft) SW 225 -2,0 C 1,3 C 0,0 km/h (0 Bft)
22.02.2015 10:20 1,5 C 1,1 C 78 % 78 % 1011,8 hPa 0,0 l/m 0,0 km/h (0 Bft) W-SW 247 -1,9 C 1,5 C 0,0 km/h (0 Bft)
22.02.2015 10:25 1,6 C 1,1 C 78 % 78 % 1011,8 hPa 0,0 l/m 0,0 km/h (0 Bft) W-SW 247 -1,8 C 1,7 C 0,0 km/h (0 Bft)
22.02.2015 10:30 1,9 C 1,1 C 77 % 77 % 1011,8 hPa 0,0 l/m 0,0 km/h (0 Bft) W-SW 247 -1,7 C 2,0 C 0,0 km/h (0 Bft)
22.02.2015 10:35 2,0 C 1,1 C 77 % 77 % 1011,9 hPa 0,0 l/m 0,0 km/h (0 Bft) W-SW 247 -1,6 C 2,3 C 0,0 km/h (0 Bft)
22.02.2015 10:40 1,8 C 1,1 C 76 % 76 % 1011,9 hPa 0,0 l/m 0,0 km/h (0 Bft) NW 315 -2,0 C 2,5 C 0,0 km/h (0 Bft)
22.02.2015 10:45 2,0 C 1,1 C 76 % 76 % 1011,9 hPa 0,0 l/m 0,0 km/h (0 Bft) NW 315 -1,8 C 2,6 C 0,0 km/h (0 Bft)
22.02.2015 10:50 2,1 C 1,1 C 76 % 76 % 1011,9 hPa 0,0 l/m 0,0 km/h (0 Bft) W-SW 247 -1,7 C 2,8 C 0,0 km/h (0 Bft)
22.02.2015 10:55 2,1 C 1,1 C 75 % 75 % 1012,1 hPa 0,0 l/m 1,0 km/h (0 Bft) W-NW 292 -1,9 C 2,7 C 1,9 km/h (1 Bft)
22.02.2015 11:00 2,6 C 1,1 C 75 % 75 % 1012,1 hPa 0,0 l/m 2,3 km/h (1 Bft) NW 315 -1,4 C 3,0 C 0,0 km/h (0 Bft)
22.02.2015 11:05 2,8 C 1,1 C 74 % 74 % 1012,1 hPa 0,0 l/m 1,3 km/h (1 Bft) W-NW 292 -1,4 C 3,5 C 0,0 km/h (0 Bft)
22.02.2015 11:10 2,7 C 1,1 C 73 % 73 % 1012,1 hPa 0,0 l/m 1,0 km/h (0 Bft) W 270 -1,6 C 3,9 C 2,3 km/h (1 Bft)
22.02.2015 11:15 2,6 C 1,1 C 73 % 73 % 1012,2 hPa 0,0 l/m 1,8 km/h (1 Bft) W-NW 292 -1,7 C 4,0 C 3,5 km/h (1 Bft)
22.02.2015 11:20 2,6 C 1,1 C 72 % 72 % 1012,2 hPa 0,0 l/m 2,3 km/h (1 Bft) W-NW 292 -1,9 C 4,0 C 2,4 km/h (1 Bft)
22.02.2015 11:25 2,9 C 1,1 C 72 % 72 % 1012,2 hPa 0,0 l/m 2,1 km/h (1 Bft) W 270 -1,6 C 4,1 C 3,5 km/h (1 Bft)
22.02.2015 11:30 2,5 C 1,1 C 71 % 71 % 1012,2 hPa 0,0 l/m 3,1 km/h (1 Bft) W-SW 247 -2,2 C 3,6 C 4,2 km/h (1 Bft)
22.02.2015 11:35 2,3 C 1,1 C 71 % 71 % 1012,4 hPa 0,0 l/m 4,2 km/h (1 Bft) W-SW 247 -2,4 C 2,7 C 4,3 km/h (1 Bft)
22.02.2015 11:40 2,3 C 1,1 C 72 % 72 % 1012,4 hPa 0,0 l/m 3,7 km/h (1 Bft) W-SW 247 -2,2 C 2,7 C 3,9 km/h (1 Bft)
22.02.2015 11:45 2,2 C 1,1 C 72 % 72 % 1012,4 hPa 0,0 l/m 3,5 km/h (1 Bft) W-SW 247 -2,3 C 2,8 C 5,8 km/h (2 Bft)
22.02.2015 11:50 2,2 C 1,1 C 72 % 72 % 1012,4 hPa 0,0 l/m 3,2 km/h (1 Bft) W-NW 292 -2,3 C 2,9 C 3,7 km/h (1 Bft)
22.02.2015 11:55 2,0 C 1,1 C 72 % 72 % 1012,7 hPa 0,0 l/m 3,4 km/h (1 Bft) W-SW 247 -2,5 C 2,7 C 5,3 km/h (1 Bft)
22.02.2015 12:00 2,2 C 1,1 C 73 % 73 % 1012,7 hPa 0,0 l/m 3,5 km/h (1 Bft) W 270 -2,1 C 2,5 C 4,5 km/h (1 Bft)
22.02.2015 12:05 2,2 C 1,1 C 73 % 73 % 1012,7 hPa 0,0 l/m 3,5 km/h (1 Bft) W-NW 292 -2,1 C 2,5 C 3,4 km/h (1 Bft)
22.02.2015 12:10 2,1 C 1,1 C 73 % 73 % 1012,7 hPa 0,0 l/m 1,9 km/h (1 Bft) W-NW 292 -2,2 C 3,2 C 2,6 km/h (1 Bft)
22.02.2015 12:15 1,9 C 1,1 C 73 % 73 % 1012,6 hPa 0,0 l/m 1,8 km/h (1 Bft) NW 315 -2,4 C 3,3 C 3,5 km/h (1 Bft)
22.02.2015 12:20 2,3 C 1,1 C 73 % 73 % 1012,6 hPa 0,0 l/m 1,9 km/h (1 Bft) NW 315 -2,0 C 3,5 C 2,7 km/h (1 Bft)
22.02.2015 12:25 2,1 C 1,1 C 73 % 73 % 1012,6 hPa 0,0 l/m 2,4 km/h (1 Bft) W 270 -2,2 C 3,5 C 2,6 km/h (1 Bft)
22.02.2015 12:30 1,9 C 1,1 C 73 % 73 % 1012,6 hPa 0,0 l/m 3,2 km/h (1 Bft) W 270 -2,4 C 3,0 C 5,0 km/h (1 Bft)
22.02.2015 12:35 1,9 C 1,1 C 73 % 73 % 1012,6 hPa 0,0 l/m 3,2 km/h (1 Bft) W-SW 247 -2,4 C 2,7 C 3,2 km/h (1 Bft)
22.02.2015 12:40 2,0 C 1,1 C 73 % 73 % 1012,6 hPa 0,0 l/m 3,2 km/h (1 Bft) W-SW 247 -2,3 C 2,6 C 2,1 km/h (1 Bft)
22.02.2015 12:45 2,3 C 1,1 C 73 % 73 % 1012,6 hPa 0,0 l/m 3,1 km/h (1 Bft) W-SW 247 -2,0 C 2,9 C 3,7 km/h (1 Bft)
22.02.2015 12:50 2,3 C 1,1 C 73 % 73 % 1012,6 hPa 0,0 l/m 2,6 km/h (1 Bft) W-SW 247 -2,0 C 3,3 C 2,6 km/h (1 Bft)
22.02.2015 12:55 2,0 C 1,1 C 73 % 73 % 1012,5 hPa 0,0 l/m 2,9 km/h (1 Bft) W-NW 292 -2,3 C 3,2 C 3,5 km/h (1 Bft)
22.02.2015 13:00 2,2 C 1,1 C 72 % 72 % 1012,5 hPa 0,0 l/m 3,4 km/h (1 Bft) W-SW 247 -2,3 C 2,9 C 4,3 km/h (1 Bft)
22.02.2015 13:05 2,3 C 1,1 C 72 % 72 % 1012,5 hPa 0,0 l/m 3,4 km/h (1 Bft) W-SW 247 -2,2 C 2,9 C 4,7 km/h (1 Bft)
22.02.2015 13:10 2,3 C 1,1 C 72 % 72 % 1012,5 hPa 0,0 l/m 3,4 km/h (1 Bft) W-SW 247 -2,2 C 3,2 C 2,6 km/h (1 Bft)
22.02.2015 13:15 2,6 C 1,1 C 71 % 71 % 1012,5 hPa 0,0 l/m 3,2 km/h (1 Bft) W-SW 247 -2,1 C 3,5 C 5,8 km/h (2 Bft)
22.02.2015 13:20 3,0 C 1,1 C 70 % 70 % 1012,5 hPa 0,0 l/m 3,2 km/h (1 Bft) W-SW 247 -1,9 C 4,1 C 3,1 km/h (1 Bft)
22.02.2015 13:25 3,0 C 1,1 C 69 % 69 % 1012,5 hPa 0,0 l/m 3,2 km/h (1 Bft) W 270 -2,1 C 4,2 C 3,2 km/h (1 Bft)
22.02.2015 13:30 2,5 C 1,1 C 70 % 70 % 1012,5 hPa 0,0 l/m 2,4 km/h (1 Bft) W-SW 247 -2,4 C 4,2 C 3,5 km/h (1 Bft)
22.02.2015 13:35 2,3 C 1,1 C 70 % 70 % 1012,7 hPa 0,0 l/m 2,6 km/h (1 Bft) W 270 -2,6 C 3,9 C 3,2 km/h (1 Bft)
22.02.2015 13:40 2,1 C 1,1 C 71 % 71 % 1012,7 hPa 0,0 l/m 2,7 km/h (1 Bft) W 270 -2,6 C 3,4 C 0,0 km/h (0 Bft)
22.02.2015 13:45 2,1 C 1,0 C 72 % 72 % 1012,7 hPa 0,0 l/m 1,8 km/h (1 Bft) NW 315 -2,4 C 3,3 C 1,8 km/h (1 Bft)
22.02.2015 13:50 1,6 C 1,0 C 72 % 72 % 1012,7 hPa 0,0 l/m 1,1 km/h (1 Bft) NW 315 -2,9 C 2,9 C 2,3 km/h (1 Bft)
22.02.2015 13:55 1,6 C 1,0 C 73 % 73 % 1012,7 hPa 0,0 l/m 1,6 km/h (1 Bft) NW 315 -2,7 C 2,6 C 2,7 km/h (1 Bft)
22.02.2015 14:00 1,4 C 1,0 C 73 % 73 % 1012,7 hPa 0,0 l/m 2,3 km/h (1 Bft) W-NW 292 -2,9 C 2,2 C 4,7 km/h (1 Bft)
22.02.2015 14:05 1,5 C 1,0 C 73 % 73 % 1012,7 hPa 0,0 l/m 2,1 km/h (1 Bft) W 270 -2,8 C 2,0 C 3,2 km/h (1 Bft)
22.02.2015 14:10 1,2 C 1,0 C 74 % 74 % 1012,7 hPa 0,0 l/m 2,1 km/h (1 Bft) W 270 -2,9 C 1,9 C 3,9 km/h (1 Bft)
22.02.2015 14:15 1,2 C 1,0 C 74 % 74 % 1012,8 hPa 0,0 l/m 2,3 km/h (1 Bft) W-NW 292 -2,9 C 1,7 C 0,0 km/h (0 Bft)
22.02.2015 14:20 1,3 C 1,0 C 75 % 75 % 1012,8 hPa 0,0 l/m 1,3 km/h (1 Bft) NW 315 -2,6 C 1,7 C 1,8 km/h (1 Bft)
22.02.2015 14:25 1,3 C 1,0 C 75 % 75 % 1012,8 hPa 0,0 l/m 0,6 km/h (0 Bft) W-NW 292 -2,6 C 1,7 C 2,9 km/h (1 Bft)
22.02.2015 14:30 1,1 C 1,0 C 75 % 75 % 1012,8 hPa 0,0 l/m 1,8 km/h (1 Bft) NW 315 -2,8 C 1,5 C 1,8 km/h (1 Bft)
22.02.2015 14:35 1,0 C 1,0 C 75 % 75 % 1012,9 hPa 0,0 l/m 2,1 km/h (1 Bft) W 270 -2,9 C 1,3 C 4,8 km/h (1 Bft)
22.02.2015 14:40 1,0 C 1,0 C 76 % 76 % 1012,9 hPa 0,0 l/m 1,8 km/h (1 Bft) W-NW 292 -2,7 C 1,2 C 1,8 km/h (1 Bft)
22.02.2015 14:45 1,0 C 1,0 C 76 % 76 % 1012,9 hPa 0,0 l/m 1,6 km/h (1 Bft) N-NW 337 -2,7 C 1,1 C 3,2 km/h (1 Bft)
22.02.2015 14:50 1,0 C 1,0 C 76 % 76 % 1012,9 hPa 0,0 l/m 0,8 km/h (0 Bft) N-NO 22 -2,7 C 1,2 C 0,0 km/h (0 Bft)
22.02.2015 14:55 1,0 C 1,0 C 76 % 76 % 1012,8 hPa 0,0 l/m 0,8 km/h (0 Bft) N-NO 22 -2,7 C 1,2 C 2,6 km/h (1 Bft)
22.02.2015 15:00 1,0 C 1,0 C 76 % 76 % 1012,8 hPa 0,0 l/m 0,6 km/h (0 Bft) NW 315 -2,7 C 1,2 C 0,0 km/h (0 Bft)
22.02.2015 15:05 1,0 C 1,0 C 76 % 76 % 1012,8 hPa 0,0 l/m 0,5 km/h (0 Bft) W-NW 292 -2,7 C 1,2 C 0,0 km/h (0 Bft)
22.02.2015 15:10 0,9 C 1,0 C 77 % 77 % 1012,8 hPa 0,0 l/m 0,2 km/h (0 Bft) W-NW 292 -2,7 C 1,1 C 0,0 km/h (0 Bft)
22.02.2015 15:15 0,9 C 1,0 C 77 % 77 % 1012,9 hPa 0,0 l/m 0,3 km/h (0 Bft) NW 315 -2,7 C 1,1 C 0,0 km/h (0 Bft)
22.02.2015 15:20 0,8 C 1,0 C 77 % 77 % 1012,9 hPa 0,0 l/m 0,8 km/h (0 Bft) N 360 -2,8 C 1,0 C 3,1 km/h (1 Bft)
22.02.2015 15:25 0,9 C 1,0 C 77 % 77 % 1012,9 hPa 0,0 l/m 1,0 km/h (0 Bft) N-NO 22 -2,7 C 1,0 C 0,0 km/h (0 Bft)
22.02.2015 15:30 1,0 C 1,0 C 77 % 77 % 1012,9 hPa 0,0 l/m 0,6 km/h (0 Bft) W-NW 292 -2,6 C 1,1 C 0,0 km/h (0 Bft)
22.02.2015 15:35 1,0 C 1,0 C 78 % 78 % 1012,9 hPa 0,0 l/m 0,2 km/h (0 Bft) NW 315 -2,4 C 1,3 C 1,9 km/h (1 Bft)
22.02.2015 15:40 0,9 C 1,0 C 77 % 77 % 1012,9 hPa 0,0 l/m 0,6 km/h (0 Bft) W-NW 292 -2,7 C 1,2 C 1,9 km/h (1 Bft)
22.02.2015 15:45 0,8 C 1,0 C 77 % 77 % 1012,9 hPa 0,0 l/m 1,0 km/h (0 Bft) NW 315 -2,8 C 1,0 C 0,0 km/h (0 Bft)
22.02.2015 15:50 0,7 C 1,0 C 78 % 78 % 1012,9 hPa 0,0 l/m 0,6 km/h (0 Bft) NW 315 -2,7 C 1,0 C 1,8 km/h (1 Bft)
22.02.2015 15:55 0,7 C 1,0 C 78 % 78 % 1013,0 hPa 0,0 l/m 0,3 km/h (0 Bft) W-NW 292 -2,7 C 0,9 C 1,8 km/h (1 Bft)
22.02.2015 16:00 0,7 C 1,0 C 78 % 78 % 1013,0 hPa 0,0 l/m 0,3 km/h (0 Bft) NW 315 -2,7 C 0,8 C 1,6 km/h (1 Bft)
22.02.2015 16:05 0,7 C 1,0 C 78 % 78 % 1013,0 hPa 0,0 l/m 0,2 km/h (0 Bft) N-NW 337 -2,7 C 0,7 C 0,0 km/h (0 Bft)
22.02.2015 16:10 0,7 C 1,0 C 78 % 78 % 1013,0 hPa 0,0 l/m 0,2 km/h (0 Bft) NW 315 -2,7 C 0,7 C 1,6 km/h (1 Bft)
22.02.2015 16:15 0,7 C 1,0 C 78 % 78 % 1012,8 hPa 0,0 l/m 0,2 km/h (0 Bft) NW 315 -2,7 C 0,7 C 0,0 km/h (0 Bft)
22.02.2015 16:20 0,6 C 1,0 C 78 % 78 % 1012,8 hPa 0,0 l/m 0,5 km/h (0 Bft) W 270 -2,8 C 0,7 C 0,0 km/h (0 Bft)
22.02.2015 16:25 0,7 C 1,0 C 78 % 78 % 1012,8 hPa 0,0 l/m 0,5 km/h (0 Bft) NW 315 -2,7 C 0,6 C 0,0 km/h (0 Bft)
22.02.2015 16:30 0,6 C 1,0 C 78 % 78 % 1012,8 hPa 0,0 l/m 0,3 km/h (0 Bft) NW 315 -2,8 C 0,6 C 0,0 km/h (0 Bft)
22.02.2015 16:35 0,5 C 1,0 C 78 % 78 % 1013,0 hPa 0,0 l/m 0,2 km/h (0 Bft) NW 315 -2,9 C 0,5 C 0,0 km/h (0 Bft)
22.02.2015 16:40 0,4 C 1,0 C 79 % 79 % 1013,0 hPa 0,0 l/m 0,2 km/h (0 Bft) N-NW 337 -2,8 C 0,4 C 0,0 km/h (0 Bft)
22.02.2015 16:45 0,4 C 1,1 C 79 % 79 % 1013,0 hPa 0,0 l/m 0,2 km/h (0 Bft) NW 315 -2,8 C 0,3 C 0,0 km/h (0 Bft)
22.02.2015 16:50 0,3 C 1,1 C 79 % 79 % 1013,0 hPa 0,0 l/m 0,5 km/h (0 Bft) W 270 -2,9 C 0,2 C 0,0 km/h (0 Bft)
22.02.2015 16:55 0,3 C 1,1 C 79 % 79 % 1013,2 hPa 0,0 l/m 0,5 km/h (0 Bft) W-NW 292 -2,9 C 0,1 C 0,0 km/h (0 Bft)
22.02.2015 17:00 0,2 C 1,1 C 79 % 79 % 1013,2 hPa 0,0 l/m 0,2 km/h (0 Bft) W 270 -3,0 C 0,0 C 0,0 km/h (0 Bft)
22.02.2015 17:05 0,2 C 1,1 C 79 % 79 % 1013,2 hPa 0,0 l/m 0,2 km/h (0 Bft) NW 315 -3,0 C 0,0 C 0,0 km/h (0 Bft)
22.02.2015 17:10 0,1 C 1,1 C 79 % 79 % 1013,2 hPa 0,0 l/m 0,2 km/h (0 Bft) W-NW 292 -3,1 C -0,2 C 0,0 km/h (0 Bft)
22.02.2015 17:15 0,1 C 1,1 C 80 % 80 % 1013,2 hPa 0,0 l/m 0,2 km/h (0 Bft) NW 315 -2,9 C -0,2 C 1,8 km/h (1 Bft)
22.02.2015 17:20 0,0 C 1,1 C 80 % 80 % 1013,2 hPa 0,0 l/m 0,2 km/h (0 Bft) N-NO 22 -3,0 C -0,4 C 0,0 km/h (0 Bft)
22.02.2015 17:25 0,0 C 1,1 C 81 % 81 % 1013,2 hPa 0,0 l/m 0,2 km/h (0 Bft) N-NW 337 -2,9 C -0,5 C 0,0 km/h (0 Bft)
22.02.2015 17:30 -0,1 C 1,1 C 81 % 81 % 1013,2 hPa 0,0 l/m 0,0 km/h (0 Bft) NO 45 -3,0 C -0,5 C 0,0 km/h (0 Bft)
22.02.2015 17:35 -0,1 C 1,1 C 81 % 81 % 1013,3 hPa 0,0 l/m 0,0 km/h (0 Bft) N-NW 337 -3,0 C -0,6 C 0,0 km/h (0 Bft)
22.02.2015 17:40 -0,1 C 1,1 C 81 % 81 % 1013,3 hPa 0,0 l/m 0,0 km/h (0 Bft) N-NO 22 -3,0 C -0,7 C 0,0 km/h (0 Bft)
22.02.2015 17:45 -0,1 C 1,1 C 81 % 81 % 1013,3 hPa 0,0 l/m 0,0 km/h (0 Bft) NO 45 -3,0 C -0,7 C 0,0 km/h (0 Bft)
22.02.2015 17:50 -0,2 C 1,1 C 81 % 81 % 1013,3 hPa 0,0 l/m 0,0 km/h (0 Bft) NO 45 -3,1 C -0,8 C 0,0 km/h (0 Bft)
22.02.2015 17:55 -0,3 C 1,1 C 81 % 81 % 1013,4 hPa 0,0 l/m 0,0 km/h (0 Bft) NO 45 -3,2 C -0,9 C 0,0 km/h (0 Bft)
22.02.2015 18:00 -0,3 C 1,1 C 81 % 81 % 1013,4 hPa 0,0 l/m 0,0 km/h (0 Bft) NO 45 -3,2 C -0,9 C 0,0 km/h (0 Bft)
22.02.2015 18:05 -0,3 C 1,1 C 81 % 81 % 1013,4 hPa 0,0 l/m 0,0 km/h (0 Bft) NO 45 -3,2 C -1,0 C 0,0 km/h (0 Bft)
22.02.2015 18:10 -0,4 C 1,1 C 81 % 81 % 1013,4 hPa 0,0 l/m 0,0 km/h (0 Bft) N 360 -3,3 C -1,1 C 0,0 km/h (0 Bft)
22.02.2015 18:15 -0,4 C 1,1 C 81 % 81 % 1013,5 hPa 0,0 l/m 0,0 km/h (0 Bft) N 360 -3,3 C -1,1 C 0,0 km/h (0 Bft)
22.02.2015 18:20 -0,5 C 1,1 C 81 % 81 % 1013,5 hPa 0,0 l/m 0,0 km/h (0 Bft) N 360 -3,3 C -1,3 C 0,0 km/h (0 Bft)
22.02.2015 18:25 -0,5 C 1,1 C 81 % 81 % 1013,5 hPa 0,0 l/m 0,0 km/h (0 Bft) N 360 -3,3 C -1,3 C 0,0 km/h (0 Bft)
22.02.2015 18:30 -0,5 C 1,1 C 82 % 82 % 1013,5 hPa 0,0 l/m 0,0 km/h (0 Bft) N 360 -3,2 C -1,4 C 0,0 km/h (0 Bft)
22.02.2015 18:35 -0,6 C 1,1 C 82 % 82 % 1013,7 hPa 0,0 l/m 0,0 km/h (0 Bft) NW 315 -3,3 C -1,4 C 0,0 km/h (0 Bft)
22.02.2015 18:40 -0,7 C 1,1 C 82 % 82 % 1013,7 hPa 0,0 l/m 0,0 km/h (0 Bft) NW 315 -3,4 C -1,5 C 0,0 km/h (0 Bft)
22.02.2015 18:45 -0,7 C 1,1 C 82 % 82 % 1013,7 hPa 0,0 l/m 0,0 km/h (0 Bft) NW 315 -3,4 C -1,5 C 0,0 km/h (0 Bft)
22.02.2015 18:50 -0,7 C 1,1 C 82 % 82 % 1013,7 hPa 0,0 l/m 0,0 km/h (0 Bft) NW 315 -3,4 C -1,6 C 0,0 km/h (0 Bft)
22.02.2015 18:55 -0,7 C 1,1 C 82 % 82 % 1013,7 hPa 0,0 l/m 0,0 km/h (0 Bft) NW 315 -3,4 C -1,6 C 0,0 km/h (0 Bft)
22.02.2015 19:00 -0,7 C 1,1 C 82 % 82 % 1013,7 hPa 0,0 l/m 0,0 km/h (0 Bft) NW 315 -3,4 C -1,6 C 0,0 km/h (0 Bft)
22.02.2015 19:05 -0,8 C 1,1 C 82 % 82 % 1013,7 hPa 0,0 l/m 0,0 km/h (0 Bft) NW 315 -3,5 C -1,6 C 0,0 km/h (0 Bft)
22.02.2015 19:10 -0,8 C 1,1 C 82 % 82 % 1013,7 hPa 0,0 l/m 0,0 km/h (0 Bft) NW 315 -3,5 C -1,6 C 0,0 km/h (0 Bft)
22.02.2015 19:15 -0,8 C 1,1 C 82 % 82 % 1013,8 hPa 0,0 l/m 0,0 km/h (0 Bft) NW 315 -3,5 C -1,7 C 0,0 km/h (0 Bft)
22.02.2015 19:20 -0,9 C 1,1 C 83 % 83 % 1013,8 hPa 0,0 l/m 0,0 km/h (0 Bft) NW 315 -3,4 C -1,7 C 0,0 km/h (0 Bft)
22.02.2015 19:25 -0,9 C 1,1 C 83 % 83 % 1013,8 hPa 0,0 l/m 0,0 km/h (0 Bft) NW 315 -3,4 C -1,8 C 0,0 km/h (0 Bft)
22.02.2015 19:30 -1,0 C 1,1 C 83 % 83 % 1013,8 hPa 0,0 l/m 0,0 km/h (0 Bft) NW 315 -3,5 C -1,8 C 0,0 km/h (0 Bft)
22.02.2015 19:35 -1,1 C 1,1 C 83 % 83 % 1013,6 hPa 0,0 l/m 0,0 km/h (0 Bft) NW 315 -3,6 C -1,8 C 0,0 km/h (0 Bft)
22.02.2015 19:40 -1,1 C 1,1 C 83 % 83 % 1013,6 hPa 0,0 l/m 0,0 km/h (0 Bft) NW 315 -3,6 C -1,8 C 0,0 km/h (0 Bft)
22.02.2015 19:45 -1,2 C 1,1 C 83 % 83 % 1013,6 hPa 0,0 l/m 0,0 km/h (0 Bft) O-NO 67 -3,7 C -1,8 C 0,0 km/h (0 Bft)
22.02.2015 19:50 -1,2 C 1,1 C 83 % 83 % 1013,6 hPa 0,0 l/m 0,0 km/h (0 Bft) O-NO 67 -3,7 C -1,9 C 0,0 km/h (0 Bft)
22.02.2015 19:55 -1,2 C 1,1 C 83 % 83 % 1013,7 hPa 0,0 l/m 0,0 km/h (0 Bft) O-NO 67 -3,7 C -1,9 C 0,0 km/h (0 Bft)
22.02.2015 20:00 -1,2 C 1,1 C 83 % 83 % 1013,7 hPa 0,0 l/m 0,0 km/h (0 Bft) O-NO 67 -3,7 C -1,9 C 0,0 km/h (0 Bft)
22.02.2015 20:05 -1,2 C 1,1 C 83 % 83 % 1013,7 hPa 0,0 l/m 0,0 km/h (0 Bft) O-NO 67 -3,7 C -1,9 C 0,0 km/h (0 Bft)
22.02.2015 20:10 -1,2 C 1,1 C 83 % 83 % 1013,7 hPa 0,0 l/m 0,0 km/h (0 Bft) O-NO 67 -3,7 C -1,9 C 0,0 km/h (0 Bft)
22.02.2015 20:15 -1,3 C 1,1 C 83 % 83 % 1013,5 hPa 0,0 l/m 0,0 km/h (0 Bft) O-NO 67 -3,8 C -1,9 C 0,0 km/h (0 Bft)
22.02.2015 20:20 -1,3 C 1,1 C 84 % 84 % 1013,5 hPa 0,0 l/m 0,0 km/h (0 Bft) O 90 -3,6 C -1,9 C 0,0 km/h (0 Bft)
22.02.2015 20:25 -1,3 C 1,1 C 84 % 84 % 1013,5 hPa 0,0 l/m 0,0 km/h (0 Bft) NO 45 -3,6 C -2,0 C 0,0 km/h (0 Bft)
22.02.2015 20:30 -1,3 C 1,1 C 84 % 84 % 1013,5 hPa 0,0 l/m 0,0 km/h (0 Bft) S 180 -3,6 C -2,0 C 0,0 km/h (0 Bft)
22.02.2015 20:35 -1,2 C 1,1 C 84 % 84 % 1013,2 hPa 0,0 l/m 0,2 km/h (0 Bft) N-NO 22 -3,5 C -2,0 C 0,0 km/h (0 Bft)
22.02.2015 20:40 -1,2 C 1,1 C 84 % 84 % 1013,2 hPa 0,0 l/m 0,3 km/h (0 Bft) NO 45 -3,5 C -1,9 C 2,3 km/h (1 Bft)
22.02.2015 20:45 -1,2 C 1,1 C 84 % 84 % 1013,2 hPa 0,0 l/m 0,2 km/h (0 Bft) N-NO 22 -3,5 C -1,9 C 0,0 km/h (0 Bft)
22.02.2015 20:50 -1,2 C 1,1 C 84 % 84 % 1013,2 hPa 0,0 l/m 0,2 km/h (0 Bft) N-NO 22 -3,5 C -1,9 C 0,0 km/h (0 Bft)
22.02.2015 20:55 -1,3 C 1,1 C 84 % 84 % 1013,2 hPa 0,0 l/m 0,0 km/h (0 Bft) O 90 -3,6 C -1,9 C 0,0 km/h (0 Bft)
22.02.2015 21:00 -1,2 C 1,1 C 84 % 84 % 1013,2 hPa 0,0 l/m 0,0 km/h (0 Bft) N-NO 22 -3,5 C -1,9 C 0,0 km/h (0 Bft)
22.02.2015 21:05 -1,3 C 1,1 C 84 % 84 % 1013,2 hPa 0,0 l/m 0,0 km/h (0 Bft) O-NO 67 -3,6 C -1,9 C 0,0 km/h (0 Bft)
22.02.2015 21:10 -1,3 C 1,1 C 84 % 84 % 1013,2 hPa 0,0 l/m 0,0 km/h (0 Bft) NO 45 -3,6 C -1,9 C 0,0 km/h (0 Bft)
22.02.2015 21:15 -1,3 C 1,1 C 85 % 85 % 1013,0 hPa 0,0 l/m 0,0 km/h (0 Bft) NO 45 -3,5 C -1,9 C 0,0 km/h (0 Bft)
22.02.2015 21:20 -1,3 C 1,1 C 85 % 85 % 1013,0 hPa 0,0 l/m 0,0 km/h (0 Bft) N-NO 22 -3,5 C -1,9 C 0,0 km/h (0 Bft)
22.02.2015 21:25 -1,3 C 1,1 C 85 % 85 % 1013,0 hPa 0,0 l/m 0,2 km/h (0 Bft) N-NO 22 -3,5 C -1,9 C 1,6 km/h (1 Bft)
22.02.2015 21:30 -1,4 C 1,1 C 85 % 85 % 1013,0 hPa 0,0 l/m 0,2 km/h (0 Bft) O-SO 112 -3,6 C -2,0 C 0,0 km/h (0 Bft)
22.02.2015 21:35 -1,3 C 1,1 C 85 % 85 % 1013,0 hPa 0,0 l/m 0,0 km/h (0 Bft) NW 315 -3,5 C -2,0 C 0,0 km/h (0 Bft)
22.02.2015 21:40 -1,3 C 1,1 C 85 % 85 % 1013,0 hPa 0,0 l/m 0,2 km/h (0 Bft) SW 225 -3,5 C -2,1 C 1,8 km/h (1 Bft)
22.02.2015 21:45 -1,3 C 1,1 C 85 % 85 % 1013,0 hPa 0,0 l/m 0,2 km/h (0 Bft) S-SW 202 -3,5 C -2,1 C 0,0 km/h (0 Bft)
22.02.2015 21:50 -1,4 C 1,1 C 85 % 85 % 1013,0 hPa 0,0 l/m 0,2 km/h (0 Bft) SW 225 -3,6 C -2,1 C 0,0 km/h (0 Bft)
22.02.2015 21:55 -1,4 C 1,1 C 85 % 85 % 1013,0 hPa 0,0 l/m 0,0 km/h (0 Bft) NW 315 -3,6 C -2,1 C 0,0 km/h (0 Bft)
22.02.2015 22:00 -1,5 C 1,1 C 85 % 85 % 1013,0 hPa 0,0 l/m 0,0 km/h (0 Bft) SW 225 -3,7 C -2,1 C 0,0 km/h (0 Bft)
22.02.2015 22:05 -1,4 C 1,1 C 85 % 85 % 1013,0 hPa 0,0 l/m 0,0 km/h (0 Bft) S 180 -3,6 C -2,1 C 0,0 km/h (0 Bft)
22.02.2015 22:10 -1,3 C 1,1 C 85 % 85 % 1013,0 hPa 0,0 l/m 0,0 km/h (0 Bft) S 180 -3,5 C -2,0 C 0,0 km/h (0 Bft)
22.02.2015 22:15 -1,3 C 1,1 C 85 % 85 % 1012,9 hPa 0,0 l/m 0,0 km/h (0 Bft) S 180 -3,5 C -1,9 C 0,0 km/h (0 Bft)
22.02.2015 22:20 -1,3 C 1,1 C 85 % 85 % 1012,9 hPa 0,0 l/m 0,0 km/h (0 Bft) S 180 -3,5 C -1,9 C 0,0 km/h (0 Bft)
22.02.2015 22:25 -1,3 C 1,1 C 85 % 85 % 1012,9 hPa 0,0 l/m 0,0 km/h (0 Bft) S 180 -3,5 C -1,9 C 0,0 km/h (0 Bft)
22.02.2015 22:30 -1,3 C 1,1 C 86 % 86 % 1012,9 hPa 0,0 l/m 0,0 km/h (0 Bft) W-SW 247 -3,3 C -1,9 C 0,0 km/h (0 Bft)
22.02.2015 22:35 -1,3 C 1,1 C 86 % 86 % 1012,9 hPa 0,0 l/m 0,0 km/h (0 Bft) W-SW 247 -3,3 C -1,8 C 0,0 km/h (0 Bft)
22.02.2015 22:40 -1,3 C 1,1 C 86 % 86 % 1012,9 hPa 0,0 l/m 0,0 km/h (0 Bft) W-SW 247 -3,3 C -1,9 C 0,0 km/h (0 Bft)
22.02.2015 22:45 -1,3 C 1,1 C 86 % 86 % 1012,9 hPa 0,0 l/m 0,0 km/h (0 Bft) SW 225 -3,3 C -1,9 C 0,0 km/h (0 Bft)
22.02.2015 22:50 -1,3 C 1,1 C 86 % 86 % 1012,9 hPa 0,0 l/m 0,0 km/h (0 Bft) S 180 -3,3 C -1,9 C 0,0 km/h (0 Bft)
22.02.2015 22:55 -1,3 C 1,1 C 86 % 86 % 1012,9 hPa 0,0 l/m 0,0 km/h (0 Bft) SW 225 -3,3 C -1,9 C 0,0 km/h (0 Bft)
22.02.2015 23:00 -1,4 C 1,1 C 86 % 86 % 1012,9 hPa 0,0 l/m 0,0 km/h (0 Bft) S 180 -3,4 C -2,0 C 0,0 km/h (0 Bft)
22.02.2015 23:05 -1,4 C 1,1 C 86 % 86 % 1012,9 hPa 0,0 l/m 0,0 km/h (0 Bft) S 180 -3,4 C -2,0 C 0,0 km/h (0 Bft)
22.02.2015 23:10 -1,4 C 1,1 C 86 % 86 % 1012,9 hPa 0,0 l/m 0,0 km/h (0 Bft) S-SO 157 -3,4 C -2,1 C 0,0 km/h (0 Bft)
22.02.2015 23:15 -1,4 C 1,1 C 86 % 86 % 1012,5 hPa 0,0 l/m 0,0 km/h (0 Bft) O 90 -3,4 C -2,1 C 0,0 km/h (0 Bft)
22.02.2015 23:20 -1,5 C 1,1 C 86 % 86 % 1012,5 hPa 0,0 l/m 0,0 km/h (0 Bft) W 270 -3,5 C -2,1 C 0,0 km/h (0 Bft)
22.02.2015 23:25 -1,6 C 1,1 C 86 % 86 % 1012,5 hPa 0,0 l/m 0,0 km/h (0 Bft) S 180 -3,6 C -2,1 C 0,0 km/h (0 Bft)
22.02.2015 23:30 -1,5 C 1,1 C 86 % 86 % 1012,5 hPa 0,0 l/m 0,0 km/h (0 Bft) O-NO 67 -3,5 C -2,2 C 0,0 km/h (0 Bft)
22.02.2015 23:35 -1,7 C 1,1 C 86 % 86 % 1012,1 hPa 0,0 l/m 0,0 km/h (0 Bft) SO 135 -3,7 C -2,2 C 0,0 km/h (0 Bft)
22.02.2015 23:40 -1,7 C 1,1 C 86 % 86 % 1012,1 hPa 0,0 l/m 0,0 km/h (0 Bft) SO 135 -3,7 C -2,3 C 0,0 km/h (0 Bft)
22.02.2015 23:45 -1,7 C 1,1 C 86 % 86 % 1012,1 hPa 0,0 l/m 0,0 km/h (0 Bft) O-SO 112 -3,7 C -2,4 C 0,0 km/h (0 Bft)
22.02.2015 23:50 -1,8 C 1,1 C 86 % 86 % 1012,1 hPa 0,0 l/m 0,0 km/h (0 Bft) O-NO 67 -3,8 C -2,4 C 0,0 km/h (0 Bft)
22.02.2015 23:55 -1,9 C 1,1 C 86 % 86 % 1011,6 hPa 0,0 l/m 0,0 km/h (0 Bft) O-NO 67 -3,9 C -2,5 C 0,0 km/h (0 Bft)
_ Min-Zeit 23:55 00:25 13:25 13:25 00:10 - 23:55 - - 23:55 23:55 23:55
Minimum _ -1,9 C 0,9 C 69 % 69 % 1005,9 hPa - 0,0 km/h (0 Bft) - - -3,9 C -2,5 C 0,0 km/h (0 Bft)
_ Max-Zeit 13:25 09:10 23:55 23:55 19:30 23:55 11:35 - - 11:05 13:30 03:10
Maximum _ 3,0 C 1,2 C 86 % 86 % 1013,8 hPa 0,0 l/m 4,2 km/h
W-SW (1 Bft)
- - -1,4 C 4,2 C 7,4 km/h
NW (2 Bft)
Durchschnitt _ 0,0 C 1,1 C 81 % 81 % 1010,9 hPa #0,0 l/m 0,6 km/h (0 Bft) W-SW - -2,9 C -0,3 C 0,8 km/h (0 Bft)